GW4435 Weather Reports


time (UTC)temp
C
wind
direction
speed
KPH
gust
KPH
rain 1hr
cm
rain 24hr
cm
rain mn
cm
humidity
%
barometer
mb
20260906155008 33 106 4.8 9.7 0.00 0.00 0.00 50 1016.3
20260906154506 33 93 3.2 8.0 0.00 0.00 0.00 51 1016.2
20260906154006 32 177 1.6 8.0 0.00 0.00 0.00 54 1016.1
20260906153508 32 217 3.2 12.9 0.00 0.00 0.00 55 1016.1
20260906153006 32 174 4.8 9.7 0.00 0.00 0.00 56 1016.0
20260906151507 31 63 3.2 9.7 0.00 0.00 0.00 58 1016.0
20260906151006 31 156 4.8 8.0 0.00 0.00 0.00 58 1016.0
20260906150006 31 152 4.8 9.7 0.00 0.00 0.00 60 1016.0
20260906145507 31 140 1.6 4.8 0.00 0.00 0.00 60 1016.1
20260906145007 30 146 3.2 4.8 0.00 0.00 0.00 61 1016.0
20260906144506 30 114 3.2 4.8 0.00 0.00 0.00 62 1016.0
20260906144006 30 148 1.6 3.2 0.00 0.00 0.00 64 1016.1
20260906143506 29 156 3.2 4.8 0.00 0.00 0.00 65 1016.1
20260906143006 28 174 1.6 4.8 0.00 0.00 0.00 67 1016.1
20260906142505 28 257 1.6 4.8 0.00 0.00 0.00 68 1016.0
20260906142006 28 356 0.0 3.2 0.00 0.00 0.00 70 1016.0
20260906141506 27 41 1.6 3.2 0.00 0.00 0.00 72 1016.0
20260906140506 27 14 1.6 3.2 0.00 0.00 0.00 73 1016.0
20260906140006 26 230 0.0 3.2 0.00 0.00 0.00 74 1016.1
20260906135506 26 249 1.6 3.2 0.00 0.00 0.00 75 1016.1
20260906135006 26 205 1.6 3.2 0.00 0.00 0.00 76 1016.0
20260906134006 25 324 0.0 3.2 0.00 0.00 0.00 78 1016.0
20260906133506 25 348 1.6 3.2 0.00 0.00 0.00 79 1016.0
20260906133006 25 40 1.6 3.2 0.00 0.00 0.00 80 1016.0
20260906132506 24 33 1.6 3.2 0.00 0.00 0.00 81 1016.0
20260906132006 23 21 1.6 3.2 0.00 0.00 0.00 83 1015.9
20260906131505 23 357 0.0 1.6 0.00 0.00 0.00 84 1015.9
20260906131006 23 26 1.6 1.6 0.00 0.00 0.00 85 1015.9
20260906130506 23 338 1.6 3.2 0.00 0.00 0.00 86 1015.9
20260906130006 22 340 0.0 1.6 0.00 0.00 0.00 87 1015.9
20260906125505 22 193 0.0 1.6 0.00 0.00 0.00 88 1015.8
20260906125006 22 186 1.6 4.8 0.00 0.00 0.00 89 1015.7
20260906124506 21 211 1.6 3.2 0.00 0.00 0.00 90 1015.7
20260906124006 21 332 1.6 3.2 0.00 0.00 0.00 90 1015.6
20260906123506 21 341 1.6 3.2 0.00 0.00 0.00 90 1015.5
20260906123005 21 355 1.6 3.2 0.00 0.00 0.00 90 1015.5
20260906122505 21 32 1.6 3.2 0.00 0.00 0.00 90 1015.5
20260906122006 21 345 1.6 3.2 0.00 0.00 0.00 91 1015.5
20260906121506 21 326 1.6 3.2 0.00 0.00 0.00 90 1015.5
20260906121006 21 0 1.6 3.2 0.00 0.00 0.00 91 1015.4
20260906120505 21 210 0.0 0.0 0.00 0.00 0.00 91 1015.4
20260906120006 21 210 1.6 3.2 0.00 0.00 0.00 91 1015.4
20260906115506 21 198 0.0 1.6 0.00 0.00 0.00 91 1015.4
20260906115006 21 333 0.0 0.0 0.00 0.00 0.00 91 1015.3
20260906114505 21 34 0.0 1.6 0.00 0.00 0.00 90 1015.2
20260906114007 21 36 1.6 3.2 0.00 0.00 0.00 90 1015.2
20260906113506 21 64 1.6 3.2 0.00 0.00 0.00 90 1015.1
20260906113006 21 38 0.0 3.2 0.00 0.00 0.00 90 1015.0
20260906112506 21 338 0.0 1.6 0.00 0.00 0.00 90 1015.0
20260906112006 21 339 0.0 0.0 0.00 0.00 0.00 91 1015.0
20260906111506 21 339 0.0 0.0 0.00 0.00 0.00 90 1015.0
20260906111006 21 339 0.0 1.6 0.00 0.00 0.00 90 1015.0
20260906110506 21 343 1.6 3.2 0.00 0.00 0.00 90 1014.9
20260906105505 21 348 1.6 3.2 0.00 0.00 0.00 90 1014.9
20260906105006 21 58 0.0 1.6 0.00 0.00 0.00 90 1014.9
20260906104506 21 43 1.6 3.2 0.00 0.00 0.00 90 1014.9
20260906104006 21 335 3.2 4.8 0.00 0.00 0.00 91 1014.8
20260906103506 21 344 1.6 3.2 0.00 0.00 0.00 90 1014.7
20260906103006 21 1 0.0 3.2 0.00 0.00 0.00 90 1014.8
20260906102505 21 341 1.6 3.2 0.00 0.00 0.00 90 1014.7
20260906102006 21 1 1.6 3.2 0.00 0.00 0.00 89 1014.6
20260906101506 21 326 1.6 3.2 0.00 0.00 0.00 88 1014.6
20260906101006 22 17 1.6 1.6 0.00 0.00 0.00 88 1014.6
20260906100506 22 318 0.0 0.0 0.00 0.00 0.00 88 1014.6
20260906095506 22 327 1.6 3.2 0.00 0.00 0.00 88 1014.5
20260906095006 22 323 1.6 3.2 0.00 0.00 0.00 88 1014.5
20260906094506 22 358 3.2 3.2 0.00 0.00 0.00 88 1014.5
20260906094006 22 357 3.2 4.8 0.00 0.00 0.00 88 1014.5
20260906093006 22 339 1.6 4.8 0.00 0.00 0.00 88 1014.4
20260906092505 22 351 3.2 4.8 0.00 0.00 0.00 87 1014.4
20260906092006 22 4 1.6 3.2 0.00 0.00 0.00 87 1014.4
20260906091506 22 344 3.2 4.8 0.00 0.00 0.00 87 1014.4
20260906091006 22 359 1.6 3.2 0.00 0.00 0.00 87 1014.4
20260906090506 22 341 1.6 3.2 0.00 0.00 0.00 87 1014.4
20260906090005 22 335 3.2 4.8 0.00 0.00 0.00 88 1014.4
20260906085006 23 346 3.2 4.8 0.00 0.00 0.00 84 1014.3
20260906084506 23 152 0.0 1.6 0.00 0.00 0.00 83 1014.3
20260906084006 23 131 1.6 3.2 0.00 0.00 0.00 83 1014.3
20260906083506 23 149 1.6 3.2 0.00 0.00 0.00 83 1014.2
20260906083006 23 163 1.6 3.2 0.00 0.00 0.00 83 1014.3
20260906082506 23 170 0.0 1.6 0.00 0.00 0.00 83 1014.3
20260906081506 23 198 0.0 1.6 0.00 0.00 0.00 84 1014.3
20260906081006 23 231 0.0 0.0 0.00 0.00 0.00 84 1014.3
20260906080505 23 231 0.0 0.0 0.00 0.00 0.00 84 1014.3
20260906080006 23 231 0.0 0.0 0.00 0.00 0.00 83 1014.4
20260906075007 23 8 3.2 4.8 0.00 0.00 0.00 82 1014.5
20260906074006 23 9 1.6 3.2 0.00 0.00 0.00 80 1014.4
20260906073506 24 353 1.6 3.2 0.00 0.00 0.00 80 1014.3
20260906073006 24 342 1.6 3.2 0.00 0.00 0.00 80 1014.3
20260906072006 23 328 1.6 1.6 0.00 0.00 0.00 80 1014.4
20260906071506 23 329 1.6 3.2 0.00 0.00 0.00 81 1014.5
20260906071006 23 336 1.6 3.2 0.00 0.00 0.00 81 1014.5
20260906070506 23 348 3.2 3.2 0.00 0.00 0.00 81 1014.4
20260906070005 24 346 3.2 3.2 0.00 0.00 0.00 80 1014.5
20260906065506 24 354 1.6 3.2 0.00 0.00 0.00 78 1014.5
20260906065006 25 334 3.2 3.2 0.00 0.00 0.00 78 1014.5
20260906064506 24 337 1.6 3.2 0.00 0.00 0.00 78 1014.5
20260906064005 24 295 0.0 1.6 0.00 0.00 0.00 78 1014.6
20260906063506 24 334 1.6 3.2 0.00 0.00 0.00 78 1014.6
20260906063006 24 339 3.2 3.2 0.00 0.00 0.00 79 1014.6
20260906062506 24 341 1.6 3.2 0.00 0.00 0.00 78 1014.6
20260906062006 25 347 1.6 4.8 0.00 0.00 0.00 78 1014.6
20260906061506 25 358 1.6 4.8 0.00 0.00 0.00 77 1014.6
20260906061006 25 356 1.6 3.2 0.00 0.00 0.00 76 1014.6
20260906060506 25 241 0.0 1.6 0.00 0.00 0.00 76 1014.7
20260906060006 25 15 0.0 0.0 0.00 0.00 0.00 76 1014.6
20260906055506 25 15 0.0 0.0 0.00 0.00 0.00 76 1014.6
20260906055006 25 15 0.0 3.2 0.00 0.00 0.00 76 1014.5
20260906054506 25 345 1.6 3.2 0.00 0.00 0.00 76 1014.5
20260906054006 25 352 3.2 3.2 0.00 0.00 0.00 75 1014.5
20260906052506 25 341 1.6 3.2 0.00 0.00 0.00 73 1014.5
20260906052005 25 331 1.6 3.2 0.00 0.00 0.00 73 1014.4
20260906051506 25 8 1.6 1.6 0.00 0.00 0.00 74 1014.4
20260906050507 25 336 3.2 4.8 0.00 0.00 0.00 75 1014.4
20260906050006 26 347 3.2 4.8 0.00 0.00 0.00 73 1014.4
20260906045506 26 0 1.6 3.2 0.00 0.00 0.00 72 1014.3
20260906045006 26 351 1.6 3.2 0.00 0.00 0.00 72 1014.3
20260906044506 27 357 3.2 3.2 0.00 0.00 0.00 69 1014.3
20260906043506 27 25 1.6 4.8 0.00 0.00 0.00 66 1014.3
20260906043006 26 66 3.2 3.2 0.00 0.00 0.00 67 1014.3
20260906042506 26 10 0.0 1.6 0.00 0.00 0.00 69 1014.3
20260906042006 26 331 1.6 3.2 0.00 0.00 0.00 70 1014.3
20260906040006 28 1 0.0 3.2 0.00 0.00 0.00 63 1014.1
20260906035506 28 106 1.6 3.2 0.00 0.00 0.00 62 1014.1
20260906035007 28 99 1.6 4.8 0.00 0.00 0.00 62 1014.2
20260906034507 28 82 4.8 8.0 0.00 0.00 0.00 61 1014.1
20260906033507 28 87 3.2 8.0 0.00 0.00 0.00 61 1014.2
20260906033007 28 94 3.2 4.8 0.00 0.00 0.00 61 1014.2
20260906032506 29 158 3.2 8.0 0.00 0.00 0.00 60 1014.1
20260906032006 29 78 4.8 9.7 0.00 0.00 0.00 60 1014.1
20260906031506 29 81 3.2 8.0 0.00 0.00 0.00 59 1014.1
20260906031006 29 76 4.8 9.7 0.00 0.00 0.00 59 1014.0
20260906030006 29 81 6.4 11.3 0.00 0.00 0.00 58 1013.9
20260906025507 29 75 6.4 9.7 0.00 0.00 0.00 58 1013.9
20260906025007 30 77 6.4 11.3 0.00 0.00 0.00 58 1013.9
20260906024506 29 77 4.8 11.3 0.00 0.00 0.00 57 1013.8
20260906024006 29 107 1.6 4.8 0.00 0.00 0.00 58 1013.8
20260906023008 29 166 1.6 4.8 0.00 0.00 0.00 58 1013.7
20260906022506 28 115 0.0 1.6 0.00 0.00 0.00 60 1013.6
20260906022006 28 337 0.0 4.8 0.00 0.00 0.00 59 1013.5
20260906021006 28 318 0.0 1.6 0.00 0.00 0.00 60 1013.2
20260906020506 28 318 1.6 3.2 0.00 0.00 0.00 61 1013.1
20260906020006 29 349 1.6 3.2 0.00 0.00 0.00 60 1012.9
20260906015506 29 352 1.6 3.2 0.00 0.00 0.00 58 1012.8
20260906015006 30 333 1.6 3.2 0.00 0.00 0.00 57 1012.7
20260906014506 30 349 1.6 3.2 0.00 0.00 0.00 56 1012.7
20260906014006 31 356 1.6 3.2 0.00 0.00 0.00 54 1012.8
20260906013506 31 318 0.0 1.6 0.00 0.00 0.00 52 1012.9
20260906013006 31 326 0.0 1.6 0.00 0.00 0.00 51 1012.8
20260906012506 31 147 0.0 1.6 0.00 0.00 0.00 51 1012.8
20260906012006 32 200 0.0 3.2 0.00 0.00 0.00 50 1012.8
20260906011007 32 39 3.2 4.8 0.00 0.00 0.00 48 1012.8
20260906010506 32 60 4.8 9.7 0.00 0.00 0.00 48 1012.7
20260906010006 32 76 6.4 9.7 0.00 0.00 0.00 48 1012.7
20260906005506 32 71 3.2 8.0 0.00 0.00 0.00 48 1012.7
20260906005007 32 78 6.4 14.5 0.00 0.00 0.00 47 1012.7
20260906004006 32 101 3.2 9.7 0.00 0.00 0.00 47 1012.7
20260906003507 33 82 3.2 9.7 0.00 0.00 0.00 47 1012.7
20260906003007 33 88 4.8 9.7 0.00 0.00 0.00 47 1012.8
20260906002006 33 84 4.8 11.3 0.00 0.00 0.00 47 1012.9
20260906001006 34 131 3.2 11.3 0.00 0.00 0.00 45 1013.1
20260906000506 34 47 3.2 8.0 0.00 0.00 0.00 44 1013.1
20260906000006 34 59 1.6 4.8 0.00 0.00 0.00 44 1013.1
20260905235507 34 56 3.2 9.7 0.00 0.00 0.00 43 1013.1
20260905235006 35 65 4.8 11.3 0.00 0.00 0.00 43 1013.2
20260905234507 35 40 4.8 11.3 0.00 0.00 0.00 43 1013.3
20260905234007 35 63 3.2 9.7 0.00 0.00 0.00 43 1013.3
20260905233007 35 64 4.8 11.3 0.00 0.00 0.00 42 1013.3
20260905232508 35 37 4.8 9.7 0.00 0.00 0.00 43 1013.4
20260905232006 35 41 4.8 9.7 0.00 0.00 0.00 42 1013.3
20260905231507 36 44 3.2 9.7 0.00 0.00 0.00 42 1013.4
20260905230006 39 264 3.2 4.8 0.00 0.00 0.00 33 1014.0
20260905225007 38 206 3.2 11.3 0.00 0.00 0.00 34 1013.6
20260905224507 39 205 4.8 11.3 0.00 0.00 0.00 34 1013.6
20260905224007 39 205 1.6 11.3 0.00 0.00 0.00 34 1013.6
20260905223508 39 193 4.8 11.3 0.00 0.00 0.00 34 1013.7
20260905223007 40 310 1.6 8.0 0.00 0.00 0.00 33 1013.7
20260905222507 40 194 3.2 8.0 0.00 0.00 0.00 33 1013.6
20260905222006 39 156 3.2 8.0 0.00 0.00 0.00 34 1013.7
20260905221506 39 162 8.0 11.3 0.00 0.00 0.00 34 1013.7
20260905221006 39 232 4.8 9.7 0.00 0.00 0.00 34 1013.6
20260905220507 38 156 4.8 9.7 0.00 0.00 0.00 34 1013.5
20260905220006 38 180 8.0 12.9 0.00 0.00 0.00 34 1013.6
20260905215507 38 156 3.2 9.7 0.00 0.00 0.00 35 1013.6
20260905214506 38 111 4.8 12.9 0.00 0.00 0.00 35 1013.7
20260905214006 38 133 6.4 11.3 0.00 0.00 0.00 35 1013.7
20260905213507 38 75 4.8 11.3 0.00 0.00 0.00 35 1013.7
20260905213007 38 132 8.0 11.3 0.00 0.00 0.00 35 1013.7
20260905212506 38 127 8.0 14.5 0.00 0.00 0.00 35 1013.7
20260905212007 38 85 3.2 14.5 0.00 0.00 0.00 35 1013.8
20260905211506 38 101 1.6 4.8 0.00 0.00 0.00 34 1014.0
20260905211006 38 91 1.6 4.8 0.00 0.00 0.00 35 1014.0
20260905210006 39 165 3.2 11.3 0.00 0.00 0.00 34 1014.1
20260905205507 39 165 4.8 12.9 0.00 0.00 0.00 35 1014.1
20260905205006 39 226 4.8 11.3 0.00 0.00 0.00 35 1014.2
20260905204507 39 206 4.8 9.7 0.00 0.00 0.00 34 1014.4
20260905204006 40 76 4.8 11.3 0.00 0.00 0.00 34 1014.5
20260905203507 40 105 3.2 8.0 0.00 0.00 0.00 34 1014.6
20260905203006 39 236 3.2 9.7 0.00 0.00 0.00 34 1014.6
20260905202506 39 238 4.8 11.3 0.00 0.00 0.00 35 1014.6
20260905202006 39 210 4.8 12.9 0.00 0.00 0.00 34 1014.7
20260905201506 39 120 3.2 8.0 0.00 0.00 0.00 35 1014.7
20260905201007 38 160 3.2 11.3 0.00 0.00 0.00 35 1014.8
20260905200507 38 211 3.2 12.9 0.00 0.00 0.00 35 1014.9
20260905200006 38 185 6.4 12.9 0.00 0.00 0.00 35 1014.9
20260905195007 38 187 4.8 11.3 0.00 0.00 0.00 35 1015.0
20260905194506 38 188 6.4 16.1 0.00 0.00 0.00 35 1015.1
20260905194007 38 145 6.4 14.5 0.00 0.00 0.00 36 1015.2
20260905193507 38 132 3.2 14.5 0.00 0.00 0.00 36 1015.2
20260905193007 38 199 4.8 12.9 0.00 0.00 0.00 36 1015.2
20260905192507 38 193 4.8 16.1 0.00 0.00 0.00 37 1015.2
20260905192006 38 208 6.4 14.5 0.00 0.00 0.00 36 1015.4
20260905191507 38 255 4.8 9.7 0.00 0.00 0.00 37 1015.4
20260905191007 38 292 4.8 9.7 0.00 0.00 0.00 36 1015.5
20260905190507 37 314 4.8 11.3 0.00 0.00 0.00 38 1015.4
20260905190006 38 311 4.8 9.7 0.00 0.00 0.00 37 1015.5
20260905185507 38 313 6.4 11.3 0.00 0.00 0.00 37 1015.7
20260905185007 37 312 8.0 11.3 0.00 0.00 0.00 38 1015.7
20260905184507 37 307 4.8 9.7 0.00 0.00 0.00 37 1015.8
20260905184006 37 196 3.2 14.5 0.00 0.00 0.00 38 1015.8
20260905183506 37 187 3.2 14.5 0.00 0.00 0.00 39 1015.9
20260905183008 37 260 8.0 16.1 0.00 0.00 0.00 39 1015.9
20260905182506 37 220 4.8 11.3 0.00 0.00 0.00 38 1016.0
20260905182006 37 233 1.6 8.0 0.00 0.00 0.00 41 1016.0
20260905181506 36 207 1.6 12.9 0.00 0.00 0.00 41 1016.1
20260905181006 37 240 4.8 9.7 0.00 0.00 0.00 40 1016.1
20260905175507 37 283 8.0 14.5 0.00 0.00 0.00 41 1016.2
20260905175006 37 283 8.0 19.3 0.00 0.00 0.00 41 1016.2
20260905174506 37 213 8.0 19.3 0.00 0.00 0.00 41 1016.2
20260905174006 36 212 4.8 16.1 0.00 0.00 0.00 44 1016.1
20260905173006 36 199 4.8 19.3 0.00 0.00 0.00 43 1016.3
20260905172506 36 238 9.7 20.9 0.00 0.00 0.00 42 1016.5
20260905172007 36 353 4.8 12.9 0.00 0.00 0.00 44 1016.5
20260905171506 36 255 6.4 14.5 0.00 0.00 0.00 45 1016.4
20260905171006 36 302 4.8 11.3 0.00 0.00 0.00 46 1016.4
20260905170507 36 312 4.8 9.7 0.00 0.00 0.00 46 1016.3
20260905170006 36 76 3.2 9.7 0.00 0.00 0.00 46 1016.3
20260905165506 35 232 1.6 8.0 0.00 0.00 0.00 47 1016.4
20260905165007 35 318 4.8 11.3 0.00 0.00 0.00 48 1016.4
20260905164506 35 235 3.2 11.3 0.00 0.00 0.00 49 1016.3
20260905163506 35 284 4.8 11.3 0.00 0.00 0.00 47 1016.5
20260905163006 35 18 3.2 8.0 0.00 0.00 0.00 49 1016.4
20260905162506 35 13 3.2 9.7 0.00 0.00 0.00 50 1016.5
20260905162006 35 14 4.8 11.3 0.00 0.00 0.00 49 1016.6
20260905161506 35 340 4.8 11.3 0.00 0.00 0.00 50 1016.5
20260905161006 34 343 3.2 9.7 0.00 0.00 0.00 51 1016.6
20260905160506 34 314 3.2 11.3 0.00 0.00 0.00 51 1016.5
20260905155507 33 314 3.2 12.9 0.00 0.00 0.00 52 1016.6